User: anonymous   Login
Location: Unspecified
(0.0000°N, 0.0000°E)
Time: 19:29:39
(UTC+00:00)
Language:

STARLINK-31049 - Orbit

View from above orbital plane
View from above orbital plane
View from above satellite
View from above satellite

Ground track
Ground track

The orbit is defined by the following mean orbital elements,

1 58543U          26145.48714426 +.00000000 +00000-0 +20922-3 0 00000
2 58543  53.1610  65.2988 0001311 107.8543 252.2603 15.34357043    00
Epoch (UTC): 25 May 2026 11:41:29
Eccentricity: 0.0001311
inclination: 53.1610°
perigee height: 462 km
apogee height: 464 km
right ascension of ascending node: 65.2988°
argument of perigee: 107.8543°
revolutions per day: 15.34357043
mean anomaly at epoch: 252.2603°

The dashed part of the orbit path shows where the satellite is in the earth's shadow,  

DLR